EVA159 RKSI-RCTP

Flight info

Callsign EVA159
Flight time 2h 12m
Altitude 36000
Route BOPTA Z51 BEDES Y711 MUGUS Y742 SALMI B576 BAKER
Aircraft B77W/H-SDE1E2E3FGHIJ2J3J4J5M1RWXY/LB1D1

Departure

Time 2026-05-05 12:35
Airport Incheon International Airport (RKSI)

Arrival

Time 2026-05-05 14:47
Airport Taiwan Taoyuan International Airport (RCTP)
Time Latitude Longitude Altitude Speed Heading
2026-05-05 11:51 37.45191 126.45275 37 ft 0 kts 245°
2026-05-05 12:08 37.45197 126.45290 37 ft 4 kts 245°
2026-05-05 12:08 37.45208 126.45321 37 ft 4 kts 245°
2026-05-05 12:08 37.45217 126.45347 36 ft 2 kts 245°
2026-05-05 12:09 37.45228 126.45376 35 ft 3 kts 245°
2026-05-05 12:09 37.45235 126.45396 35 ft 4 kts 268°
2026-05-05 12:09 37.45234 126.45423 34 ft 2 kts 279°
2026-05-05 12:09 37.45231 126.45455 36 ft 4 kts 269°
2026-05-05 12:10 37.45231 126.45484 37 ft 1 kts 271°
2026-05-05 12:14 37.45231 126.45482 37 ft 0 kts 271°
2026-05-05 12:15 37.45231 126.45475 37 ft 2 kts 271°
2026-05-05 12:15 37.45234 126.45435 34 ft 7 kts 279°
2026-05-05 12:15 37.45275 126.45380 37 ft 11 kts 336°
2026-05-05 12:15 37.45346 126.45350 37 ft 15 kts 343°
2026-05-05 12:16 37.45461 126.45307 37 ft 19 kts 343°
2026-05-05 12:16 37.45557 126.45272 37 ft 11 kts 343°
2026-05-05 12:16 37.45626 126.45237 37 ft 10 kts 328°
2026-05-05 12:16 37.45670 126.45201 37 ft 4 kts 326°
2026-05-05 12:17 37.45678 126.45166 37 ft 4 kts 258°
2026-05-05 12:17 37.45666 126.45130 37 ft 4 kts 243°
2026-05-05 12:17 37.45649 126.45096 37 ft 5 kts 235°
2026-05-05 12:17 37.45627 126.45056 37 ft 8 kts 235°
2026-05-05 12:18 37.45580 126.44974 37 ft 14 kts 234°
2026-05-05 12:18 37.45522 126.44871 37 ft 14 kts 234°
2026-05-05 12:18 37.45464 126.44769 37 ft 14 kts 234°
2026-05-05 12:18 37.45406 126.44665 37 ft 14 kts 234°
2026-05-05 12:19 37.45348 126.44562 37 ft 14 kts 234°
2026-05-05 12:19 37.45289 126.44459 37 ft 14 kts 234°
2026-05-05 12:19 37.45231 126.44356 37 ft 14 kts 234°
2026-05-05 12:19 37.45173 126.44252 37 ft 14 kts 234°
2026-05-05 12:20 37.45114 126.44149 37 ft 14 kts 234°
2026-05-05 12:20 37.45071 126.44073 37 ft 9 kts 234°
2026-05-05 12:20 37.45033 126.44012 37 ft 9 kts 217°
2026-05-05 12:20 37.44976 126.44029 37 ft 9 kts 149°
2026-05-05 12:21 37.44924 126.44074 37 ft 9 kts 144°
2026-05-05 12:21 37.44871 126.44122 37 ft 10 kts 144°
2026-05-05 12:21 37.44805 126.44180 37 ft 12 kts 144°
2026-05-05 12:21 37.44785 126.44198 37 ft 12 kts 144°
2026-05-05 12:22 37.44719 126.44256 37 ft 12 kts 144°
2026-05-05 12:23 37.44650 126.44318 37 ft 12 kts 144°
2026-05-05 12:23 37.44623 126.44342 37 ft 5 kts 144°
2026-05-05 12:23 37.44599 126.44367 37 ft 5 kts 128°
2026-05-05 12:23 37.44602 126.44407 37 ft 5 kts 69°
2026-05-05 12:24 37.44616 126.44440 37 ft 5 kts 58°
2026-05-05 12:24 37.44634 126.44475 37 ft 5 kts 56°
2026-05-05 12:24 37.44664 126.44482 37 ft 5 kts 335°
2026-05-05 12:24 37.44695 126.44457 37 ft 5 kts 326°
2026-05-05 12:25 37.44726 126.44430 37 ft 5 kts 325°
2026-05-05 12:25 37.44763 126.44398 37 ft 8 kts 325°
2026-05-05 12:25 37.44819 126.44349 37 ft 11 kts 324°
2026-05-05 12:25 37.44891 126.44284 37 ft 14 kts 324°
2026-05-05 12:26 37.44958 126.44224 37 ft 11 kts 324°
2026-05-05 12:26 37.45002 126.44180 37 ft 4 kts 299°
2026-05-05 12:26 37.44993 126.44137 36 ft 6 kts 243°
2026-05-05 12:26 37.44970 126.44089 37 ft 9 kts 241°
2026-05-05 12:27 37.44989 126.44018 37 ft 10 kts 320°
2026-05-05 12:27 37.45055 126.43959 37 ft 13 kts 325°
2026-05-05 12:27 37.45135 126.43889 37 ft 16 kts 324°
2026-05-05 12:27 37.45235 126.43799 37 ft 18 kts 324°
2026-05-05 12:28 37.45347 126.43700 37 ft 21 kts 325°
2026-05-05 12:28 37.45471 126.43589 37 ft 23 kts 324°
2026-05-05 12:28 37.45608 126.43467 37 ft 25 kts 325°
2026-05-05 12:28 37.45752 126.43339 38 ft 25 kts 324°
2026-05-05 12:29 37.45902 126.43205 38 ft 27 kts 324°
2026-05-05 12:29 37.46063 126.43062 38 ft 29 kts 324°
2026-05-05 12:29 37.46233 126.42910 38 ft 31 kts 324°
2026-05-05 12:29 37.46411 126.42752 38 ft 32 kts 324°
2026-05-05 12:30 37.46591 126.42589 38 ft 31 kts 324°
2026-05-05 12:30 37.46764 126.42437 38 ft 30 kts 325°
2026-05-05 12:30 37.46934 126.42284 38 ft 30 kts 324°
2026-05-05 12:30 37.47105 126.42133 38 ft 30 kts 324°
2026-05-05 12:31 37.47245 126.42008 38 ft 0 kts 325°
2026-05-05 12:31 37.47285 126.41972 38 ft 17 kts 325°
2026-05-05 12:32 37.47364 126.41903 38 ft 11 kts 325°
2026-05-05 12:32 37.47408 126.41852 38 ft 9 kts 290°
2026-05-05 12:32 37.47388 126.41781 38 ft 9 kts 235°
2026-05-05 12:32 37.47353 126.41718 38 ft 9 kts 235°
2026-05-05 12:33 37.47317 126.41654 38 ft 9 kts 234°
2026-05-05 12:33 37.47277 126.41595 38 ft 9 kts 214°
2026-05-05 12:33 37.47219 126.41614 36 ft 9 kts 146°
2026-05-05 12:33 37.47199 126.41631 38 ft 0 kts 145°
2026-05-05 12:34 37.47064 126.41751 38 ft 61 kts 145°
2026-05-05 12:34 37.46510 126.42244 38 ft 132 kts 144°
2026-05-05 12:34 37.45596 126.43048 43 ft 185 kts 146°
2026-05-05 12:34 37.44510 126.44031 478 ft 191 kts 146°
2026-05-05 12:35 37.43421 126.44879 1411 ft 181 kts 153°
2026-05-05 12:35 37.42279 126.45707 1762 ft 203 kts 154°
2026-05-05 12:35 37.40967 126.46662 1999 ft 231 kts 153°
2026-05-05 12:35 37.39540 126.47714 2455 ft 248 kts 153°
2026-05-05 12:36 37.38011 126.48722 3072 ft 254 kts 163°
2026-05-05 12:36 37.36292 126.49341 3765 ft 261 kts 168°
2026-05-05 12:36 37.34512 126.49883 4552 ft 265 kts 168°
2026-05-05 12:36 37.32699 126.50457 5304 ft 271 kts 168°
2026-05-05 12:37 37.30869 126.51059 6117 ft 273 kts 167°
2026-05-05 12:37 37.29021 126.51676 6901 ft 276 kts 167°
2026-05-05 12:37 37.27186 126.52416 7593 ft 281 kts 158°
2026-05-05 12:37 37.25432 126.53548 8309 ft 285 kts 153°
2026-05-05 12:38 37.23699 126.54786 9072 ft 288 kts 152°
2026-05-05 12:38 37.21975 126.56017 9822 ft 291 kts 152°
2026-05-05 12:38 37.20191 126.57267 10431 ft 299 kts 152°
2026-05-05 12:38 37.18297 126.58567 10634 ft 322 kts 153°
2026-05-05 12:39 37.16252 126.59954 10828 ft 347 kts 153°
2026-05-05 12:39 37.14052 126.61438 11074 ft 367 kts 153°
2026-05-05 12:39 37.11669 126.62546 11484 ft 377 kts 172°
2026-05-05 12:39 37.09045 126.62607 12145 ft 381 kts 182°
2026-05-05 12:40 37.06381 126.62495 12898 ft 386 kts 181°
2026-05-05 12:40 37.03684 126.62425 13000 ft 389 kts 181°
2026-05-05 12:40 37.00975 126.62386 13005 ft 388 kts 180°
2026-05-05 12:40 36.98275 126.62355 13006 ft 388 kts 180°
2026-05-05 12:41 36.95563 126.62372 13511 ft 392 kts 179°
2026-05-05 12:41 36.92817 126.62414 14393 ft 396 kts 179°
2026-05-05 12:41 36.90053 126.62453 15303 ft 399 kts 179°
2026-05-05 12:41 36.87259 126.62459 16144 ft 403 kts 181°
2026-05-05 12:42 36.84435 126.62312 16928 ft 409 kts 182°
2026-05-05 12:42 36.81576 126.62102 17726 ft 413 kts 183°
2026-05-05 12:42 36.78683 126.61902 18122 ft 420 kts 182°
2026-05-05 12:42 36.75752 126.61724 18256 ft 423 kts 182°
2026-05-05 12:43 36.72794 126.61721 18984 ft 426 kts 173°
2026-05-05 12:43 36.69907 126.62507 19804 ft 423 kts 165°
2026-05-05 12:43 36.67008 126.63211 20378 ft 430 kts 175°
2026-05-05 12:43 36.63997 126.63159 20982 ft 436 kts 187°
2026-05-05 12:44 36.61012 126.62457 21685 ft 437 kts 194°
2026-05-05 12:44 36.58036 126.61573 22304 ft 443 kts 193°
2026-05-05 12:44 36.55009 126.60712 22950 ft 447 kts 193°
2026-05-05 12:44 36.51999 126.59877 23612 ft 451 kts 192°
2026-05-05 12:45 36.48886 126.59024 24168 ft 455 kts 193°
2026-05-05 12:45 36.45825 126.58189 24703 ft 458 kts 193°
2026-05-05 12:45 36.42683 126.57335 25256 ft 461 kts 193°
2026-05-05 12:45 36.39549 126.56484 25786 ft 464 kts 193°
2026-05-05 12:46 36.36833 126.55746 26225 ft 467 kts 193°
2026-05-05 12:46 36.33625 126.54875 26727 ft 470 kts 193°
2026-05-05 12:46 36.30424 126.54005 27213 ft 474 kts 193°
2026-05-05 12:46 36.27177 126.53124 27696 ft 477 kts 193°
2026-05-05 12:47 36.23934 126.52244 28164 ft 480 kts 193°
2026-05-05 12:47 36.20694 126.51365 28612 ft 482 kts 194°
2026-05-05 12:47 36.17402 126.50473 29036 ft 485 kts 194°
2026-05-05 12:47 36.14095 126.49578 29437 ft 488 kts 194°
2026-05-05 12:48 36.10766 126.48678 29826 ft 490 kts 194°
2026-05-05 12:48 36.07435 126.47778 30209 ft 492 kts 194°
2026-05-05 12:48 36.04084 126.46875 30625 ft 491 kts 194°
2026-05-05 12:48 36.00759 126.45979 31120 ft 488 kts 194°
2026-05-05 12:49 35.97459 126.45091 31621 ft 485 kts 194°
2026-05-05 12:49 35.94159 126.44204 32088 ft 483 kts 194°
2026-05-05 12:49 35.90892 126.43326 32517 ft 481 kts 194°
2026-05-05 12:49 35.87622 126.42447 32942 ft 480 kts 194°
2026-05-05 12:50 35.84363 126.41572 33377 ft 478 kts 194°
2026-05-05 12:50 35.81119 126.40702 33803 ft 476 kts 194°
2026-05-05 12:50 35.77929 126.39847 34205 ft 474 kts 195°
2026-05-05 12:50 35.74700 126.38982 34527 ft 473 kts 195°
2026-05-05 12:51 35.71489 126.38122 34827 ft 472 kts 195°
2026-05-05 12:51 35.68283 126.37265 35131 ft 471 kts 195°
2026-05-05 12:51 35.65078 126.36409 35442 ft 470 kts 195°
2026-05-05 12:51 35.61883 126.35556 35752 ft 469 kts 195°
2026-05-05 12:52 35.58699 126.34707 36026 ft 468 kts 195°
2026-05-05 12:52 35.56587 126.34143 36049 ft 471 kts 195°
2026-05-05 12:52 35.49344 126.32213 36101 ft 471 kts 195°
2026-05-05 12:53 35.43012 126.30533 36102 ft 465 kts 196°
2026-05-05 12:53 35.37712 126.29127 36110 ft 464 kts 196°
2026-05-05 12:54 35.28307 126.26635 36114 ft 463 kts 196°
2026-05-05 12:55 35.22484 126.25095 36112 ft 463 kts 196°
2026-05-05 12:55 35.14681 126.23035 36110 ft 464 kts 196°
2026-05-05 12:56 35.09422 126.21649 36108 ft 465 kts 196°
2026-05-05 12:56 35.03101 126.19986 36108 ft 465 kts 196°
2026-05-05 12:57 34.99277 126.18981 36110 ft 465 kts 196°
2026-05-05 12:57 34.92945 126.17320 36116 ft 465 kts 196°
2026-05-05 12:58 34.86607 126.15659 36114 ft 465 kts 196°
2026-05-05 12:58 34.80268 126.14001 36115 ft 465 kts 196°
2026-05-05 12:59 34.73946 126.12351 36132 ft 464 kts 196°
2026-05-05 12:59 34.67679 126.10716 36138 ft 463 kts 196°
2026-05-05 13:00 34.58224 126.08255 36142 ft 462 kts 196°
2026-05-05 13:01 34.45640 126.04989 36145 ft 461 kts 196°
2026-05-05 13:01 34.39587 126.03421 36147 ft 461 kts 196°
2026-05-05 13:02 34.33278 126.01790 36143 ft 460 kts 197°
2026-05-05 13:02 34.27064 126.00186 36147 ft 459 kts 197°
2026-05-05 13:03 34.20810 125.98574 36150 ft 459 kts 197°
2026-05-05 13:03 34.14560 125.96964 36152 ft 459 kts 197°
2026-05-05 13:04 34.08315 125.95359 36147 ft 458 kts 197°
2026-05-05 13:04 34.02078 125.93759 36150 ft 458 kts 197°
2026-05-05 13:05 33.95841 125.92161 36149 ft 458 kts 197°
2026-05-05 13:05 33.89653 125.90578 36153 ft 457 kts 197°
2026-05-05 13:06 33.83425 125.88986 36156 ft 457 kts 197°
2026-05-05 13:06 33.77208 125.87401 36152 ft 456 kts 197°
2026-05-05 13:07 33.70994 125.85818 36155 ft 456 kts 197°
2026-05-05 13:07 33.64802 125.84243 36149 ft 456 kts 197°
2026-05-05 13:08 33.58607 125.82669 36152 ft 455 kts 197°
2026-05-05 13:08 33.52469 125.81113 36150 ft 454 kts 197°
2026-05-05 13:09 33.46286 125.79547 36151 ft 454 kts 197°
2026-05-05 13:09 33.40167 125.78000 36152 ft 453 kts 197°
2026-05-05 13:10 33.33999 125.76443 36153 ft 452 kts 197°
2026-05-05 13:10 33.27837 125.74889 36156 ft 452 kts 197°
2026-05-05 13:11 33.21689 125.73341 36151 ft 451 kts 197°
2026-05-05 13:11 33.15544 125.71796 36156 ft 450 kts 198°
2026-05-05 13:12 33.09459 125.70268 36156 ft 450 kts 198°
2026-05-05 13:12 33.03329 125.68732 36151 ft 449 kts 198°
2026-05-05 13:13 32.97213 125.67201 36155 ft 448 kts 198°
2026-05-05 13:13 32.91110 125.65675 36153 ft 448 kts 198°
2026-05-05 13:14 32.85023 125.64155 36155 ft 447 kts 198°
2026-05-05 13:14 32.78967 125.62646 36155 ft 447 kts 198°
2026-05-05 13:15 32.72875 125.61129 36151 ft 446 kts 198°
2026-05-05 13:15 32.66806 125.59621 36154 ft 446 kts 198°
2026-05-05 13:16 32.60737 125.58114 36153 ft 445 kts 198°
2026-05-05 13:16 32.54671 125.56610 36151 ft 445 kts 198°
2026-05-05 13:17 32.48616 125.55111 36150 ft 444 kts 198°
2026-05-05 13:17 32.42577 125.53618 36151 ft 444 kts 198°
2026-05-05 13:18 32.36529 125.52125 36150 ft 443 kts 198°
2026-05-05 13:18 32.30676 125.50682 36150 ft 443 kts 198°
2026-05-05 13:19 32.24677 125.49205 36151 ft 443 kts 198°
2026-05-05 13:19 32.18650 125.47723 36150 ft 442 kts 199°
2026-05-05 13:20 32.12620 125.46242 36152 ft 442 kts 199°
2026-05-05 13:20 32.06598 125.44765 36149 ft 441 kts 199°
2026-05-05 13:21 32.00592 125.43294 36155 ft 441 kts 199°
2026-05-05 13:21 31.94590 125.41827 36145 ft 440 kts 199°
2026-05-05 13:22 31.88588 125.40361 36148 ft 440 kts 199°
2026-05-05 13:22 31.82640 125.38910 36147 ft 439 kts 199°
2026-05-05 13:23 31.76641 125.37449 36150 ft 439 kts 199°
2026-05-05 13:23 31.70667 125.35995 36143 ft 438 kts 199°
2026-05-05 13:24 31.64732 125.34553 36149 ft 437 kts 199°
2026-05-05 13:24 31.58911 125.33141 36149 ft 437 kts 199°
2026-05-05 13:25 31.52965 125.31700 36148 ft 436 kts 199°
2026-05-05 13:25 31.47014 125.30260 36144 ft 436 kts 199°
2026-05-05 13:26 31.41080 125.28825 36145 ft 435 kts 199°
2026-05-05 13:26 31.35151 125.27394 36141 ft 434 kts 199°
2026-05-05 13:27 31.29230 125.25967 36144 ft 434 kts 199°
2026-05-05 13:27 31.23322 125.24544 36148 ft 433 kts 199°
2026-05-05 13:28 31.17420 125.23125 36150 ft 432 kts 199°
2026-05-05 13:28 31.11569 125.21720 36141 ft 432 kts 199°
2026-05-05 13:29 31.05682 125.20308 36144 ft 431 kts 199°
2026-05-05 13:29 30.99807 125.18901 36142 ft 430 kts 199°
2026-05-05 13:30 30.93949 125.17499 36144 ft 429 kts 199°
2026-05-05 13:30 30.88143 125.16112 36145 ft 428 kts 199°
2026-05-05 13:31 30.82311 125.14720 36142 ft 428 kts 199°
2026-05-05 13:31 30.76485 125.13331 36144 ft 427 kts 199°
2026-05-05 13:32 30.70667 125.11946 36146 ft 426 kts 199°
2026-05-05 13:32 30.64855 125.10564 36150 ft 426 kts 199°
2026-05-05 13:33 30.59047 125.09184 36147 ft 425 kts 199°
2026-05-05 13:33 30.53244 125.07808 36146 ft 425 kts 199°
2026-05-05 13:34 30.47487 125.06444 36144 ft 425 kts 200°
2026-05-05 13:34 30.41695 125.05073 36145 ft 424 kts 199°
2026-05-05 13:35 30.35909 125.03705 36145 ft 424 kts 200°
2026-05-05 13:35 30.30130 125.02341 36140 ft 424 kts 199°
2026-05-05 13:36 30.24355 125.00979 36143 ft 423 kts 199°
2026-05-05 13:36 30.18581 124.99619 36144 ft 423 kts 199°
2026-05-05 13:37 30.12811 124.98262 36146 ft 423 kts 199°
2026-05-05 13:37 30.07046 124.96907 36140 ft 422 kts 199°
2026-05-05 13:38 30.01302 124.95526 36136 ft 420 kts 201°
2026-05-05 13:38 29.95816 124.93463 36152 ft 413 kts 207°
2026-05-05 13:39 29.91345 124.91527 36139 ft 413 kts 207°
2026-05-05 13:39 29.85064 124.88836 36137 ft 414 kts 207°
2026-05-05 13:40 29.80548 124.86910 36132 ft 414 kts 207°
2026-05-05 13:40 29.75173 124.84621 36133 ft 414 kts 207°
2026-05-05 13:41 29.69805 124.82338 36134 ft 414 kts 207°
2026-05-05 13:41 29.64400 124.80041 36133 ft 414 kts 207°
2026-05-05 13:42 29.58998 124.77748 36130 ft 414 kts 207°
2026-05-05 13:42 29.53583 124.75452 36132 ft 414 kts 207°
2026-05-05 13:43 29.48178 124.73163 36131 ft 414 kts 207°
2026-05-05 13:43 29.42776 124.70878 36125 ft 414 kts 207°
2026-05-05 13:44 29.37573 124.68679 36124 ft 414 kts 207°
2026-05-05 13:44 29.32169 124.66397 36124 ft 413 kts 207°
2026-05-05 13:45 29.26771 124.64121 36125 ft 413 kts 207°
2026-05-05 13:45 29.21383 124.61852 36128 ft 413 kts 207°
2026-05-05 13:46 29.15989 124.59583 36124 ft 413 kts 207°
2026-05-05 13:46 29.10586 124.57312 36126 ft 414 kts 207°
2026-05-05 13:47 29.05212 124.55055 36124 ft 414 kts 207°
2026-05-05 13:47 28.99799 124.52785 36120 ft 414 kts 207°
2026-05-05 13:48 28.94618 124.50040 36132 ft 408 kts 214°
2026-05-05 13:48 28.89845 124.46576 36123 ft 405 kts 219°
2026-05-05 13:49 28.85251 124.42871 36117 ft 406 kts 219°
2026-05-05 13:49 28.80629 124.39144 36115 ft 407 kts 219°
2026-05-05 13:50 28.75992 124.35422 36117 ft 408 kts 219°
2026-05-05 13:50 28.71343 124.31703 36115 ft 408 kts 219°
2026-05-05 13:51 28.66716 124.28007 36116 ft 409 kts 219°
2026-05-05 13:51 28.62051 124.24284 36119 ft 409 kts 219°
2026-05-05 13:52 28.57389 124.20568 36119 ft 409 kts 219°
2026-05-05 13:52 28.52884 124.16981 36117 ft 409 kts 219°
2026-05-05 13:53 28.48216 124.13267 36114 ft 409 kts 219°
2026-05-05 13:53 28.43574 124.09579 36116 ft 409 kts 219°
2026-05-05 13:54 28.38895 124.05864 36117 ft 409 kts 219°
2026-05-05 13:54 28.34219 124.02156 36113 ft 410 kts 219°
2026-05-05 13:55 28.29548 123.98437 36112 ft 410 kts 219°
2026-05-05 13:55 28.24952 123.94691 36114 ft 409 kts 219°
2026-05-05 13:56 28.20331 123.90917 36117 ft 410 kts 219°
2026-05-05 13:56 28.15693 123.87142 36113 ft 410 kts 219°
2026-05-05 13:57 28.12588 123.84620 36115 ft 410 kts 219°
2026-05-05 13:57 28.08728 123.81489 36110 ft 410 kts 219°
2026-05-05 13:58 28.04258 123.77866 36116 ft 411 kts 219°
2026-05-05 13:58 27.99753 123.74217 36112 ft 411 kts 219°
2026-05-05 13:59 27.92797 123.68590 36108 ft 412 kts 219°
2026-05-05 14:00 27.86602 123.63551 36112 ft 412 kts 219°
2026-05-05 14:00 27.81160 123.59122 36110 ft 412 kts 219°
2026-05-05 14:01 27.76499 123.55335 36109 ft 413 kts 219°
2026-05-05 14:01 27.71830 123.51547 36106 ft 413 kts 219°
2026-05-05 14:02 27.67160 123.47763 36105 ft 414 kts 219°
2026-05-05 14:02 27.62511 123.43999 36105 ft 414 kts 219°
2026-05-05 14:03 27.57832 123.40215 36100 ft 414 kts 219°
2026-05-05 14:03 27.53144 123.36428 36104 ft 414 kts 219°
2026-05-05 14:04 27.48456 123.32645 36102 ft 415 kts 219°
2026-05-05 14:04 27.43765 123.28863 36105 ft 415 kts 219°
2026-05-05 14:05 27.39091 123.25100 36097 ft 416 kts 219°
2026-05-05 14:05 27.34377 123.21308 36098 ft 416 kts 219°
2026-05-05 14:06 27.29661 123.17518 36095 ft 417 kts 219°
2026-05-05 14:06 27.24932 123.13722 36093 ft 417 kts 219°
2026-05-05 14:07 27.20211 123.09936 36094 ft 418 kts 219°
2026-05-05 14:07 27.15476 123.06143 36094 ft 418 kts 219°
2026-05-05 14:08 27.10737 123.02349 36092 ft 418 kts 219°
2026-05-05 14:08 27.05989 122.98559 36093 ft 419 kts 219°
2026-05-05 14:09 27.01255 122.94799 36094 ft 419 kts 219°
2026-05-05 14:09 26.96488 122.91019 36090 ft 420 kts 219°
2026-05-05 14:10 26.91715 122.87235 36086 ft 420 kts 219°
2026-05-05 14:10 26.86931 122.83446 36085 ft 421 kts 219°
2026-05-05 14:11 26.82302 122.79782 36083 ft 422 kts 219°
2026-05-05 14:11 26.77505 122.75990 36085 ft 422 kts 219°
2026-05-05 14:12 26.72698 122.72193 36080 ft 423 kts 219°
2026-05-05 14:12 26.67918 122.68421 36086 ft 423 kts 219°
2026-05-05 14:13 26.63095 122.64616 36082 ft 424 kts 219°
2026-05-05 14:13 26.58277 122.60814 36077 ft 424 kts 219°
2026-05-05 14:14 26.53448 122.57008 36084 ft 425 kts 219°
2026-05-05 14:14 26.48617 122.53204 36082 ft 425 kts 219°
2026-05-05 14:15 26.43781 122.49400 36086 ft 425 kts 219°
2026-05-05 14:15 26.38975 122.45623 36081 ft 425 kts 219°
2026-05-05 14:16 26.34132 122.41822 36074 ft 426 kts 219°
2026-05-05 14:16 26.29283 122.38019 36078 ft 426 kts 219°
2026-05-05 14:17 26.24430 122.34217 36075 ft 426 kts 219°
2026-05-05 14:17 26.19567 122.30410 36074 ft 427 kts 219°
2026-05-05 14:18 26.14709 122.26612 36076 ft 427 kts 219°
2026-05-05 14:18 26.09860 122.22855 36072 ft 428 kts 219°
2026-05-05 14:19 26.04950 122.19087 36069 ft 428 kts 219°
2026-05-05 14:19 26.00040 122.15321 36071 ft 429 kts 219°
2026-05-05 14:20 25.95121 122.11546 36064 ft 429 kts 219°
2026-05-05 14:20 25.90320 122.07867 35706 ft 419 kts 219°
2026-05-05 14:21 25.87925 122.06031 35084 ft 415 kts 219°
2026-05-05 14:21 25.85585 122.04240 34322 ft 402 kts 218°
2026-05-05 14:21 25.83313 122.02503 33494 ft 391 kts 219°
2026-05-05 14:21 25.81845 122.01380 32933 ft 384 kts 219°
2026-05-05 14:22 25.78959 121.99170 31945 ft 368 kts 219°
2026-05-05 14:22 25.77580 121.98115 31488 ft 361 kts 219°
2026-05-05 14:22 25.75542 121.96556 30869 ft 349 kts 219°
2026-05-05 14:22 25.73581 121.95060 30333 ft 337 kts 219°
2026-05-05 14:23 25.71671 121.93602 29763 ft 329 kts 219°
2026-05-05 14:23 25.69181 121.91707 29035 ft 327 kts 219°
2026-05-05 14:23 25.67277 121.90259 28528 ft 338 kts 219°
2026-05-05 14:23 25.65973 121.89265 28172 ft 346 kts 219°
2026-05-05 14:24 25.64151 121.87488 27613 ft 350 kts 232°
2026-05-05 14:24 25.62866 121.85417 27103 ft 342 kts 240°
2026-05-05 14:24 25.61721 121.83167 26563 ft 329 kts 241°
2026-05-05 14:24 25.60641 121.80993 26061 ft 315 kts 241°
2026-05-05 14:25 25.59604 121.78910 25570 ft 303 kts 241°
2026-05-05 14:25 25.58594 121.76899 25110 ft 295 kts 240°
2026-05-05 14:25 25.57597 121.74928 24674 ft 293 kts 240°
2026-05-05 14:25 25.56585 121.72940 24220 ft 302 kts 240°
2026-05-05 14:26 25.55518 121.70850 23753 ft 322 kts 240°
2026-05-05 14:26 25.54406 121.68677 23168 ft 331 kts 240°
2026-05-05 14:26 25.53283 121.66486 22609 ft 321 kts 240°
2026-05-05 14:26 25.52202 121.64377 22101 ft 307 kts 240°
2026-05-05 14:27 25.51172 121.62369 21649 ft 293 kts 240°
2026-05-05 14:27 25.50185 121.60447 21192 ft 281 kts 239°
2026-05-05 14:27 25.49230 121.58591 20784 ft 275 kts 239°
2026-05-05 14:27 25.48216 121.56817 20388 ft 276 kts 232°
2026-05-05 14:28 25.46953 121.55158 20010 ft 291 kts 229°
2026-05-05 14:28 25.45549 121.53426 19544 ft 312 kts 229°
2026-05-05 14:28 25.44097 121.51619 19058 ft 312 kts 229°
2026-05-05 14:28 25.42688 121.49838 18581 ft 301 kts 230°
2026-05-05 14:29 25.41343 121.48122 18094 ft 288 kts 230°
2026-05-05 14:29 25.40061 121.46483 17636 ft 276 kts 230°
2026-05-05 14:29 25.38830 121.44910 17199 ft 267 kts 230°
2026-05-05 14:29 25.37633 121.43381 16819 ft 265 kts 231°
2026-05-05 14:30 25.36410 121.41817 16448 ft 274 kts 231°
2026-05-05 14:30 25.35114 121.40160 16045 ft 296 kts 231°
2026-05-05 14:30 25.33757 121.38426 15584 ft 298 kts 231°
2026-05-05 14:30 25.32422 121.36724 15127 ft 287 kts 231°
2026-05-05 14:31 25.31145 121.35099 14703 ft 273 kts 231°
2026-05-05 14:31 25.29928 121.33550 14309 ft 261 kts 232°
2026-05-05 14:31 25.29230 121.32660 14076 ft 256 kts 232°
2026-05-05 14:31 25.29149 121.32558 14049 ft 255 kts 232°
2026-05-05 14:32 25.28931 121.32280 13987 ft 254 kts 232°
2026-05-05 14:32 25.28719 121.32009 13911 ft 253 kts 232°
2026-05-05 14:32 25.28609 121.31869 13877 ft 253 kts 232°
2026-05-05 14:33 25.28137 121.31267 13726 ft 252 kts 232°
2026-05-05 14:33 25.27898 121.30962 13628 ft 253 kts 232°
2026-05-05 14:33 25.26738 121.29480 13248 ft 260 kts 232°
2026-05-05 14:33 25.25504 121.27902 12844 ft 284 kts 231°
2026-05-05 14:34 25.24196 121.26233 12396 ft 286 kts 231°
2026-05-05 14:34 25.22909 121.24597 11935 ft 276 kts 231°
2026-05-05 14:34 25.21680 121.23037 11521 ft 263 kts 231°
2026-05-05 14:34 25.20505 121.21544 11147 ft 251 kts 232°
2026-05-05 14:35 25.19391 121.20129 11052 ft 243 kts 232°
2026-05-05 14:35 25.18274 121.18704 10947 ft 254 kts 232°
2026-05-05 14:35 25.17121 121.17237 10837 ft 256 kts 231°
2026-05-05 14:35 25.16119 121.15963 10722 ft 248 kts 231°
2026-05-05 14:36 25.15002 121.14545 10630 ft 245 kts 232°
2026-05-05 14:36 25.13859 121.13090 10532 ft 257 kts 231°
2026-05-05 14:36 25.12682 121.11595 10407 ft 258 kts 232°
2026-05-05 14:36 25.11517 121.10118 10290 ft 250 kts 231°
2026-05-05 14:37 25.10391 121.08691 10175 ft 242 kts 231°
2026-05-05 14:37 25.09280 121.07278 10088 ft 247 kts 231°
2026-05-05 14:37 25.08126 121.05809 9903 ft 259 kts 231°
2026-05-05 14:37 25.06931 121.04291 9561 ft 263 kts 231°
2026-05-05 14:38 25.05727 121.02764 9226 ft 262 kts 231°
2026-05-05 14:38 25.04533 121.01250 8887 ft 261 kts 231°
2026-05-05 14:38 25.03358 120.99761 8572 ft 260 kts 231°
2026-05-05 14:38 25.02175 120.98260 8241 ft 258 kts 231°
2026-05-05 14:39 25.00999 120.96769 7923 ft 257 kts 231°
2026-05-05 14:39 24.99826 120.95282 7597 ft 256 kts 231°
2026-05-05 14:39 24.98657 120.93802 7290 ft 256 kts 230°
2026-05-05 14:39 24.97490 120.92325 6973 ft 255 kts 230°
2026-05-05 14:40 24.96129 120.91123 6633 ft 254 kts 205°
2026-05-05 14:40 24.94389 120.90808 6335 ft 258 kts 177°
2026-05-05 14:40 24.92677 120.91417 6045 ft 264 kts 150°
2026-05-05 14:40 24.91432 120.92720 5792 ft 270 kts 125°
2026-05-05 14:41 24.90793 120.94657 5570 ft 274 kts 93°
2026-05-05 14:41 24.90965 120.96740 5336 ft 275 kts 84°
2026-05-05 14:41 24.91088 120.98859 5022 ft 279 kts 90°
2026-05-05 14:41 24.91067 121.00989 4710 ft 277 kts 92°
2026-05-05 14:42 24.91313 121.03053 4440 ft 272 kts 67°
2026-05-05 14:42 24.92305 121.04837 4111 ft 276 kts 52°
2026-05-05 14:42 24.93560 121.06462 3803 ft 283 kts 48°
2026-05-05 14:42 24.94867 121.08081 3376 ft 279 kts 49°
2026-05-05 14:43 24.96110 121.09649 3005 ft 262 kts 50°
2026-05-05 14:43 24.97245 121.11094 2687 ft 236 kts 50°
2026-05-05 14:43 24.98243 121.12364 2439 ft 210 kts 50°
2026-05-05 14:43 24.99159 121.13532 2187 ft 187 kts 50°
2026-05-05 14:44 24.99979 121.14576 1924 ft 174 kts 50°
2026-05-05 14:44 25.00751 121.15562 1704 ft 164 kts 50°
2026-05-05 14:44 25.01472 121.16477 1482 ft 152 kts 50°
2026-05-05 14:44 25.02130 121.17316 1288 ft 138 kts 50°
2026-05-05 14:45 25.02722 121.18071 1142 ft 135 kts 51°
2026-05-05 14:45 25.03328 121.18843 960 ft 134 kts 50°
2026-05-05 14:45 25.03932 121.19613 802 ft 132 kts 50°
2026-05-05 14:45 25.04533 121.20379 640 ft 131 kts 50°
2026-05-05 14:46 25.05119 121.21126 431 ft 127 kts 51°
2026-05-05 14:46 25.05707 121.21874 303 ft 133 kts 51°
2026-05-05 14:46 25.06317 121.22652 126 ft 134 kts 51°
2026-05-05 14:46 25.06881 121.23383 102 ft 109 kts 45°
2026-05-05 14:47 25.07268 121.23850 99 ft 56 kts 49°
2026-05-05 14:47 25.07407 121.24031 99 ft 16 kts 50°
2026-05-05 14:47 25.07459 121.24097 99 ft 0 kts 48°
2026-05-05 14:48 25.07462 121.24101 99 ft 4 kts 48°
2026-05-05 14:48 25.07507 121.24147 100 ft 14 kts 37°
2026-05-05 14:48 25.07621 121.24201 101 ft 14 kts 18°
2026-05-05 14:48 25.07650 121.24212 102 ft 0 kts 19°
2026-05-05 14:49 25.07656 121.24214 102 ft 4 kts 19°
2026-05-05 14:49 25.07703 121.24232 104 ft 9 kts 19°
2026-05-05 14:50 25.07707 121.24234 104 ft 0 kts 19°
2026-05-05 14:51 25.07711 121.24235 104 ft 2 kts 19°
2026-05-05 14:51 25.07740 121.24233 104 ft 6 kts 334°
2026-05-05 14:52 25.07760 121.24178 107 ft 11 kts 263°
2026-05-05 14:52 25.07707 121.24092 107 ft 16 kts 229°
2026-05-05 14:52 25.07631 121.23995 107 ft 17 kts 229°
2026-05-05 14:52 25.07555 121.23899 107 ft 17 kts 229°
2026-05-05 14:53 25.07507 121.23837 106 ft 8 kts 236°
2026-05-05 14:53 25.07512 121.23782 107 ft 8 kts 304°
2026-05-05 14:53 25.07548 121.23745 106 ft 8 kts 319°
2026-05-05 14:53 25.07588 121.23707 107 ft 8 kts 320°
2026-05-05 14:54 25.07610 121.23658 106 ft 8 kts 258°
2026-05-05 14:54 25.07580 121.23608 108 ft 8 kts 230°
2026-05-05 14:54 25.07545 121.23562 108 ft 8 kts 229°
2026-05-05 14:54 25.07509 121.23517 108 ft 8 kts 229°
2026-05-05 14:55 25.07473 121.23471 108 ft 8 kts 229°
2026-05-05 14:55 25.07437 121.23426 107 ft 8 kts 229°
2026-05-05 14:55 25.07406 121.23385 108 ft 3 kts 229°
2026-05-05 14:55 25.07392 121.23366 108 ft 3 kts 237°
2026-05-05 14:56 25.07391 121.23342 108 ft 3 kts 281°
2026-05-05 14:56 25.07404 121.23323 107 ft 3 kts 319°
2026-05-05 14:56 25.07421 121.23307 106 ft 3 kts 319°
2026-05-05 14:56 25.07438 121.23290 108 ft 3 kts 319°
2026-05-05 14:57 25.07455 121.23274 108 ft 3 kts 319°
2026-05-05 14:57 25.07465 121.23265 106 ft 0 kts 320°
2026-05-05 15:00 25.07464 121.23265 106 ft 0 kts 319°